{"data":{"norad_id":56700,"intl_designator":"2023-067N","name":"STARLINK-30053","alt_names":[],"object_type":"PAYLOAD","status":"ACTIVE","operator":null,"country":"US","launch_date":"2023-05-19","launch_site_code":"AFETR","launch_vehicle":null,"mission":null,"orbit_class":"UNKNOWN","rcs_meters":null,"size_class":null,"mass_kg":null,"dimensions":null,"purposes":["comms"],"wikipedia_slug":null,"has_3d_model":false,"image_url":null,"decayed_at":null,"tle_current":{"epoch":"2026-09-20T10:30:23.020416Z","epoch_age_seconds":120322,"freshness":"FRESH","line1":"1 56700U 23067N   26263.43776644  .00000300  00000+0  20418-4 0  9997","line2":"2 56700  43.0030 251.2829 0001533 273.6586  86.4090 15.27579348185482","mean_motion":15.27579348,"eccentricity":0.0001533,"inclination_deg":43.003,"raan_deg":251.2829,"arg_perigee_deg":273.6586,"mean_anomaly_deg":86.409,"bstar":2.0418e-5,"rev_number":18548,"period_min":94.266788948498,"perigee_km":481.99922823509,"apogee_km":484.10286849072,"semimajor_km":6861.1880483629,"source":"CELESTRAK","updated_at":"2026-09-21T09:00:33.483053Z"}}}